Location: Heathcote
(40.9845°N, 73.7746°W)
Time: 13:42:06
(UTC+00:00)

Cosmos 44 Rocket - Pass Details

Date: 29 October 2020
Orbit: 642 x 748 km, 65.1° (Epoch: 01 December)

Event Time Altitude Azimuth Distance (km) Brightness Sun altitude
Rises 23:06:10 0° 197° (SSW) 2,965 6.9 -14.1°
Reaches altitude 10° 23:08:28 10° 193° (SSW) 2,070 6.0 -14.6°
Maximum altitude 23:13:02 53° 117° (ESE) 829 3.4 -15.4°
Enters shadow 23:16:14 20° 47° (NE) 1,578 4.7 -16.0°
